Theta_e
319 316 311 312 298 298 293 296 301 302 302 304 308 307 306 308 305 302 321 328 336 337 340 343 346 348 349 348 347 347 346 343 342 342 340 339 338 337 337 335 338 336 335 335 333 333 332 332 331
317 316 311 305 296 289 291 299 300 302 305 309 308 308 306 306 324 322 319 333 337 338 339 341 343 347 349 348 347 346 345 345 343 341 340 338 337 336 336 335 335 334 334 333 333 332 331 330 329
312 314 305 300 294 290 292 298 298 303 306 306 302 306 308 316 323 321 323 336 337 336 338 340 343 346 348 348 347 347 346 344 345 343 340 337 336 335 336 335 334 333 333 333 332 330 329 329 329
303 307 303 295 293 296 297 298 302 300 304 307 305 302 320 326 324 325 335 337 336 335 336 338 344 347 347 347 347 346 345 344 344 344 340 337 336 335 336 336 333 333 333 332 330 329 328 329 329
304 300 292 289 291 295 298 298 299 299 301 303 306 303 314 326 324 326 334 337 335 335 335 337 342 345 347 346 346 346 345 344 344 343 341 339 337 335 333 334 333 332 332 330 328 328 328 328 328
296 294 287 286 289 294 295 296 296 296 300 304 303 301 312 326 322 317 331 334 337 335 335 337 335 339 343 344 345 345 344 343 343 342 341 339 338 335 332 333 332 331 331 329 328 328 328 328 328
293 290 285 285 287 291 294 296 295 294 297 299 302 299 312 322 325 318 328 333 334 335 334 336 337 337 336 339 340 341 342 341 341 340 339 337 335 334 335 333 333 331 330 329 328 328 328 328 329
296 291 285 284 286 288 293 295 297 296 296 300 302 299 303 322 325 320 331 331 331 332 334 335 338 339 338 337 333 335 337 337 337 336 334 331 330 330 327 328 329 332 330 329 329 329 328 329 329
298 288 285 286 287 289 294 294 296 299 295 297 300 315 313 321 326 318 325 327 328 330 331 336 336 337 335 334 331 331 331 331 331 330 327 324 322 324 324 325 327 332 331 330 329 329 329 330 329
292 286 288 292 292 292 295 295 295 294 295 294 299 303 303 303 311 318 315 322 326 326 328 334 334 335 334 336 330 329 330 330 328 326 324 323 322 321 322 321 325 329 329 330 331 330 330 327 321
294 287 293 294 298 298 296 295 297 295 292 293 296 299 302 300 300 310 318 318 325 328 329 332 335 335 335 335 332 328 327 326 325 323 323 322 323 321 321 320 321 322 318 321 324 322 322 320 318
289 295 296 298 299 297 295 297 295 294 295 299 299 301 300 299 299 299 311 318 321 325 328 331 334 335 334 334 331 327 326 325 324 323 323 320 319 318 318 318 319 319 318 316 316 315 317 317 320
292 294 297 298 298 297 298 295 294 294 298 300 302 304 302 304 306 309 310 314 321 323 328 329 332 333 333 332 331 328 326 325 324 323 323 320 319 317 319 318 318 317 317 316 316 316 317 319 319
295 296 295 297 297 297 295 294 295 296 299 298 299 299 300 301 303 307 308 310 314 319 326 329 330 332 332 331 331 328 327 325 324 322 322 321 320 318 318 317 317 317 317 318 317 318 318 318 319
296 291 293 294 296 295 296 291 292 296 297 296 296 296 298 300 302 304 307 309 311 314 320 327 330 331 330 331 331 329 328 327 324 325 325 321 320 318 318 316 315 316 317 318 318 318 318 318 319
290 288 284 293 295 296 293 284 294 297 295 294 295 296 297 298 301 305 307 308 310 312 314 325 329 329 329 330 330 329 328 327 325 325 323 322 321 319 317 316 316 317 317 317 318 321 321 319 318
286 279 284 287 295 293 291 288 296 298 295 292 292 294 295 296 300 303 305 306 307 309 314 321 324 326 328 329 330 329 328 326 324 324 324 321 321 321 318 317 317 317 317 317 317 317 320 320 320
278 279 283 283 291 292 289 291 295 294 293 292 293 293 294 295 298 303 304 305 306 308 312 317 323 325 328 328 329 328 326 324 324 323 323 322 321 321 319 318 318 318 318 318 319 320 323 323 322
286 285 282 286 291 291 291 291 291 292 293 292 292 293 293 294 299 304 305 304 305 306 309 313 323 325 326 325 324 324 323 323 324 323 323 323 323 322 320 319 319 319 318 319 321 323 322 322 322
287 282 281 287 291 292 291 286 289 292 292 293 293 293 293 295 299 302 304 304 304 305 308 309 313 322 325 326 325 324 324 324 324 326 324 324 324 323 323 321 321 321 320 319 320 323 320 321 321
283 279 281 283 289 291 286 286 286 289 292 294 294 295 296 295 297 299 302 303 304 304 305 307 309 313 325 326 325 324 324 323 322 323 324 325 325 324 324 323 322 321 321 320 320 320 319 318 320
281 289 287 286 288 281 287 276 281 285 288 291 292 293 294 296 298 299 300 301 302 304 305 305 307 310 312 325 324 323 321 319 320 323 324 324 324 324 324 324 323 322 322 321 320 318 317 320 314
284 289 287 285 287 287 279 277 275 285 285 288 291 293 293 295 297 297 298 300 301 302 303 304 304 305 308 311 313 314 314 320 321 321 321 318 319 319 320 320 320 318 318 319 317 316 314 314 313
290 287 288 286 288 278 275 274 272 281 285 287 291 293 292 293 294 296 297 299 298 300 301 303 302 302 305 307 308 308 308 310 310 312 312 313 314 314 314 315 315 315 315 315 315 314 313 312 313
287 282 272 271 269 273 280 277 276 283 287 287 289 290 292 293 293 293 294 295 296 296 298 300 301 300 302 304 304 306 307 306 307 308 308 308 308 309 310 312 311 312 313 313 314 313 313 312 311
283 282 274 268 271 273 281 274 278 287 289 289 289 288 290 290 292 292 292 293 294 295 296 297 298 298 300 301 302 304 305 305 305 305 306 306 306 306 308 309 309 310 310 311 312 311 311 311 312
283 280 285 280 275 277 276 280 285 287 285 285 285 286 287 289 290 290 291 292 292 292 293 294 296 297 298 299 301 302 303 304 303 304 304 304 305 305 305 306 306 306 307 308 308 308 307 307 306
284 287 278 276 267 268 276 276 278 283 283 283 283 283 285 286 288 289 290 290 291 292 293 293 294 295 297 297 298 300 301 302 302 302 301 302 302 302 303 303 304 304 304 305 305 304 303 302 302
283 282 283 281 279 275 273 276 282 284 284 282 283 284 284 285 286 288 289 290 290 291 291 291 292 294 295 296 296 296 298 298 299 299 299 299 299 300 300 300 300 300 300 301 301 300 299 298 297
285 283 283 276 275 277 278 276 286 285 284 283 283 284 285 285 286 287 287 288 289 289 290 290 291 292 292 294 294 295 296 297 296 296 296 296 296 297 297 297 297 297 297 297 296 295 295 294 293
Wind_Speed
9 9 1 5 4 5 4 7 3 10 7 4 2 6 4 4 3 4 2 9 14 18 16 15 18 19 18 18 18 17 17 18 17 16 15 14 13 12 13 12 12 11 12 12 12 11 11 10 9
5 5 4 3 5 2 6 5 5 6 5 4 3 3 3 2 3 4 7 8 16 16 15 15 17 19 18 19 18 18 17 18 18 17 16 14 13 12 13 13 12 11 11 11 11 10 10 8 7
4 1 4 4 4 6 6 4 3 6 9 4 1 1 2 2 2 5 3 17 16 15 13 14 17 20 19 19 19 18 18 18 18 16 16 14 13 12 13 12 12 12 11 10 9 9 8 7 6
3 4 5 4 7 7 7 3 8 12 10 8 2 1 2 1 6 6 14 15 14 14 12 14 18 20 19 19 18 17 18 18 18 18 16 15 14 13 11 10 12 11 10 9 8 7 6 5 4
4 3 3 1 5 7 6 4 7 8 6 5 2 2 3 4 6 9 14 13 15 13 10 12 15 16 19 19 17 16 15 18 18 17 17 16 14 13 12 11 10 10 9 8 7 7 5 4 2
4 3 3 4 5 6 4 10 7 6 7 5 7 5 3 3 3 6 4 9 10 12 12 11 10 11 14 18 17 15 14 18 17 17 17 17 16 14 14 13 11 10 9 8 7 6 4 3 3
6 4 4 3 4 4 6 11 5 7 8 8 11 4 3 6 6 8 7 7 6 7 11 10 8 8 9 11 13 15 16 17 17 17 17 17 14 12 12 10 11 11 11 9 8 7 5 4 5
5 4 1 3 3 2 6 8 4 8 6 14 4 5 6 8 10 8 7 6 6 5 8 10 10 8 6 7 11 12 14 13 13 14 13 12 11 10 14 11 12 11 11 10 9 7 6 6 6
3 4 2 2 2 7 6 7 3 6 3 6 7 4 2 8 11 5 4 4 3 4 5 9 11 12 7 5 7 11 12 13 12 11 12 9 5 7 10 10 12 9 8 8 8 8 7 7 6
5 3 1 4 2 4 5 6 6 4 6 5 13 17 9 9 7 10 3 5 6 7 6 9 11 10 8 7 5 5 6 5 5 6 7 4 5 5 5 6 8 9 9 7 8 8 7 6 3
4 1 4 1 3 5 7 6 6 8 4 1 13 19 13 5 10 8 8 6 9 10 8 11 12 14 11 9 5 3 3 4 4 6 6 5 4 3 4 3 3 3 5 3 5 4 3 4 4
2 4 2 4 6 5 6 6 6 1 5 12 11 13 9 8 10 11 10 10 7 8 13 12 14 13 13 7 8 6 5 4 4 6 7 5 3 4 3 3 5 4 3 5 4 3 4 5 6
3 3 5 7 7 5 4 5 4 5 9 8 9 15 13 13 14 11 11 11 9 9 11 15 15 14 12 12 9 9 7 6 6 5 7 5 4 4 5 4 4 4 4 4 4 4 4 5 5
2 5 5 3 6 2 6 5 2 8 9 12 13 12 12 11 13 12 14 15 11 12 9 13 15 16 13 11 13 9 9 9 7 5 5 7 6 5 5 5 4 4 4 4 4 4 4 5 4
2 5 5 0 5 3 8 4 7 6 8 10 11 10 13 12 12 9 10 14 13 13 14 11 16 13 14 14 12 10 10 9 9 8 10 8 7 6 7 5 4 5 4 5 4 4 3 3 3
4 4 5 5 7 3 3 3 7 8 9 13 15 15 14 15 17 9 9 11 13 13 14 15 10 12 15 13 11 9 9 9 9 9 8 10 9 7 6 4 5 5 4 4 4 4 4 4 4
6 1 3 8 3 4 5 5 4 10 9 10 14 15 14 16 15 11 10 10 11 12 14 14 9 11 16 16 12 10 10 9 8 8 8 9 8 7 5 4 4 5 4 4 4 5 4 4 3
3 1 2 3 6 5 4 4 8 10 10 12 13 15 14 16 18 15 12 12 10 10 11 14 7 11 13 12 11 9 9 7 7 8 8 9 6 7 6 5 5 5 4 4 4 6 4 4 4
3 2 4 4 3 4 6 4 9 10 13 14 15 14 15 18 19 12 12 11 12 11 12 12 6 7 9 10 10 7 8 5 5 5 8 9 9 9 8 5 5 5 5 6 6 5 5 4 3
4 1 5 5 2 2 5 2 5 7 11 12 14 11 13 17 17 15 12 12 13 13 12 13 9 10 12 7 8 4 6 3 4 5 7 9 10 10 9 8 7 6 4 6 5 5 2 2 3
2 4 2 3 5 1 6 2 7 10 4 13 12 10 9 14 16 15 13 13 13 15 14 13 11 10 5 10 6 3 3 3 4 4 3 4 4 5 7 8 6 6 5 4 2 2 2 2 1
5 6 4 2 5 4 3 6 2 9 11 15 14 14 11 14 14 15 15 15 16 14 13 15 15 14 13 9 12 10 8 6 3 3 2 4 5 5 4 1 1 2 1 1 4 4 3 3 2
7 2 3 2 5 2 3 1 6 6 13 15 13 14 14 16 14 16 15 14 15 13 13 13 17 18 13 10 8 7 6 3 4 5 8 7 5 6 8 7 8 8 5 7 6 4 6 4 2
4 3 5 2 2 3 5 4 6 5 4 7 10 10 12 14 17 16 15 14 14 14 14 13 17 17 17 11 13 17 16 9 10 9 8 6 5 7 10 10 9 7 7 6 4 4 5 5 3
6 4 5 7 4 5 2 3 7 6 4 2 6 7 6 7 10 12 15 13 13 16 16 13 15 17 15 12 18 15 17 17 13 10 9 7 6 7 7 9 9 7 5 6 5 5 4 3 2
2 4 6 4 3 5 2 2 5 4 2 1 3 5 7 6 6 7 8 11 11 11 12 15 18 15 13 12 16 17 13 9 11 11 9 6 6 8 8 7 6 6 8 5 4 2 3 4 0
2 3 5 1 1 2 2 3 5 4 1 4 5 5 6 7 7 7 8 9 11 11 11 11 11 10 12 14 13 11 9 12 9 9 8 7 6 7 7 7 4 8 6 4 4 3 3 3 3
2 3 4 3 2 5 4 3 4 5 5 1 4 5 5 5 7 8 7 7 7 7 7 11 10 7 6 4 5 5 4 10 11 10 10 8 7 6 7 6 6 5 5 3 3 3 3 4 2
2 2 1 3 4 2 4 5 5 8 8 6 4 4 4 4 5 5 6 8 8 11 12 8 8 9 9 8 8 8 7 8 10 9 6 5 5 6 6 5 4 5 4 5 5 5 5 4 4
2 5 4 4 3 3 2 7 1 7 8 7 4 4 4 5 4 6 6 7 9 10 9 9 9 10 9 8 7 7 7 8 9 8 7 6 6 5 5 5 5 6 6 5 5 5 3 4 3
Wind_Direction
333 315 340 28 54 64 276 268 283 302 323 284 300 113 160 158 189 227 5 154 139 153 157 161 157 157 157 153 154 153 154 150 150 140 133 132 131 135 133 140 126 137 127 119 111 107 103 102 103
335 327 43 71 93 116 263 242 267 276 283 245 351 42 59 207 160 145 112 158 152 155 157 161 160 156 157 156 158 158 160 155 154 148 137 134 137 145 145 144 137 139 131 120 116 116 114 110 104
316 86 90 130 149 197 225 242 228 292 313 288 271 357 67 181 4 178 153 149 149 156 162 161 160 159 159 160 161 166 164 163 157 151 144 143 143 148 152 146 147 136 132 127 126 121 113 109 104
46 24 23 120 215 251 219 242 342 333 319 286 182 357 68 246 166 196 140 142 146 153 159 164 163 161 166 164 167 170 168 167 160 155 146 150 149 147 152 157 147 142 135 130 130 123 118 113 107
37 55 81 234 259 267 286 3 310 288 265 262 256 163 66 17 24 116 143 149 148 150 151 162 167 167 162 167 171 172 176 169 164 150 151 150 150 154 160 152 147 152 131 142 142 135 134 137 139
48 91 81 236 250 275 17 355 327 337 315 355 9 341 46 303 45 86 119 141 148 148 150 158 165 170 170 171 170 170 173 164 158 152 152 152 156 162 167 172 161 156 150 160 157 153 158 165 202
109 91 209 248 245 316 6 326 43 336 314 7 308 6 340 10 333 89 108 113 124 148 152 155 161 172 172 170 167 161 162 160 157 156 155 154 161 165 163 171 167 164 170 173 174 179 186 202 228
95 89 242 357 335 255 343 347 353 23 301 317 302 7 9 331 327 68 89 101 115 146 164 163 160 159 170 172 160 157 155 156 154 152 151 156 165 169 178 178 183 174 181 184 188 194 208 228 240
85 63 202 266 10 289 353 12 325 298 314 312 2 52 29 329 330 77 70 96 136 148 174 170 168 169 155 166 172 157 155 156 154 153 155 159 149 172 176 185 184 177 187 196 204 214 225 242 269
62 101 89 42 18 330 320 358 311 23 310 341 339 322 349 353 347 326 234 195 184 177 202 175 171 178 158 172 163 160 158 153 152 151 153 148 157 161 166 168 182 181 188 202 219 233 244 260 264
349 96 348 31 9 334 310 324 322 352 16 15 317 308 320 328 318 305 298 252 210 195 182 184 178 177 175 173 162 151 162 153 149 154 157 157 164 174 166 169 201 192 204 214 230 244 241 246 249
67 25 13 304 322 338 308 306 332 28 310 319 319 328 322 338 330 320 297 280 251 204 199 193 183 181 176 170 173 160 172 170 165 171 170 157 165 177 195 182 185 199 199 220 228 234 238 239 244
85 313 325 309 315 331 285 281 254 19 321 337 357 8 12 5 349 340 338 324 304 253 206 196 192 187 179 171 176 172 175 181 182 177 182 160 172 183 179 209 186 202 201 213 221 226 233 237 234
302 296 287 289 323 334 352 288 103 344 334 4 8 2 351 356 347 332 341 329 328 319 247 206 203 190 171 187 180 180 179 179 180 180 193 176 177 186 184 192 197 216 206 214 209 217 216 229 232
348 351 2 239 346 15 329 37 61 329 3 5 354 344 339 340 341 331 328 317 323 312 306 235 205 202 180 188 187 180 184 180 185 188 192 182 178 177 181 190 200 210 205 220 230 233 229 236 232
24 51 22 336 22 358 5 298 10 357 13 354 347 343 344 341 330 333 327 316 313 311 312 277 201 202 193 182 185 184 184 183 187 185 185 187 185 180 182 189 205 204 202 204 205 226 213 222 217
7 63 339 327 20 1 38 301 335 12 11 356 346 339 340 334 329 329 328 316 311 307 312 300 220 193 198 191 191 182 182 180 182 182 183 186 183 177 176 190 211 207 212 214 212 238 205 230 239
236 26 275 245 312 8 303 291 2 15 358 352 348 349 338 334 334 331 337 324 323 315 326 323 224 206 193 191 186 177 187 179 169 181 181 179 187 179 174 190 204 199 209 232 234 221 223 217 231
212 238 262 253 282 322 281 17 350 354 350 344 348 342 347 337 328 338 343 342 343 351 348 330 239 209 195 181 170 169 171 166 161 165 178 187 186 188 187 194 199 200 205 220 220 214 210 244 225
253 353 312 295 235 288 323 295 318 359 348 357 341 338 341 335 346 341 352 357 4 357 358 3 354 279 197 184 178 186 165 162 156 172 181 192 194 196 195 196 203 204 209 231 240 219 196 245 195
232 157 239 227 317 174 319 312 338 349 341 356 0 335 352 345 348 343 356 11 5 11 1 4 343 50 201 179 159 131 109 104 171 169 173 192 191 188 200 202 193 201 200 223 223 166 191 240 276
295 187 155 307 326 293 35 300 324 334 360 8 360 1 11 354 351 353 4 10 12 6 7 14 11 19 340 189 173 165 182 185 173 156 133 74 89 92 63 87 154 73 46 149 108 93 105 166 71
243 221 219 194 259 321 313 17 276 328 358 352 1 11 12 358 354 354 1 9 7 7 18 17 32 33 28 27 62 93 86 87 81 92 115 111 95 89 83 82 81 82 69 78 76 76 73 52 79
286 328 49 81 245 282 255 127 304 336 304 333 356 14 16 4 345 347 353 6 9 10 18 17 38 28 23 35 58 71 60 56 78 74 80 67 63 72 78 71 74 57 69 68 83 76 90 90 82
24 32 10 352 4 233 208 38 232 279 288 251 335 352 351 9 347 352 356 359 8 10 14 15 29 41 24 6 61 55 60 60 51 65 66 65 65 56 57 64 70 67 35 47 47 54 61 75 343
310 128 134 252 303 285 271 259 263 234 314 207 355 6 346 348 352 351 1 351 7 13 14 16 35 24 17 12 47 53 33 61 58 43 51 52 51 57 40 38 42 83 59 14 37 52 28 21 112
270 51 136 180 152 285 232 271 313 138 288 61 53 49 19 356 354 6 8 12 357 4 14 24 37 37 20 16 33 37 37 58 73 56 48 42 27 52 53 46 39 48 57 33 35 50 59 47 41
139 176 81 9 348 288 277 237 240 204 228 281 51 44 37 8 357 6 12 16 34 32 36 35 19 31 32 21 32 41 45 62 64 52 43 41 37 45 48 43 47 53 47 50 75 71 66 81 57
44 94 92 136 158 254 301 263 219 200 174 194 144 109 72 30 14 20 20 9 13 29 28 24 14 28 37 28 37 29 22 45 59 64 58 43 31 30 44 48 50 60 60 46 61 56 61 75 70
204 158 143 132 264 238 274 273 208 176 162 167 185 129 117 104 60 13 17 21 21 25 26 23 22 32 28 22 34 40 38 45 52 48 40 35 38 43 59 60 58 44 42 41 61 66 62 73 71